NOAA 16 DEB, 41208

Orbit data source: Space-Track

NOAA 16 DEB, 41208 is space debris in SSO originally from a launch on Thu, 21 Sep 2000 UTC launched from the Air Force Western Test Range (AFWTR). Debris objects in space refer to the collection of defunct objects orbiting the Earth. Examples of debris include non-operational satellites, rocket bodies, and fragments generated from explosions, collisions, or faulty payload assembly.

Loading next visibility...
Identifier
41208, 2000-055DM
Orbit
SSO
Country
Flag of USUS
Related business
Manufacturer
Unknown
Mission
Spacecraft
Bus & Motor
Unknown
Mass
Unknown
Launch date (UTC)
2000-09-21 (25 years ago)
Launch vehicle
Unknown
Launch site
Air Force Western Test Range (AFWTR)
Object type
Payload
Rocket body
Debris
Shape & HBR
Unknown shape, 0.1 m
Radar Cross Section
Small (<0.1 m²)

Expand to show TLE details & history
Last TLE update: 1 day ago

TLE from 1 day ago
0 NOAA 16 DEB
1 41208U 00055DM  25346.83614481  .00005074  00000-0  25125-2 0  9993
2 41208  98.6685 358.4896 0031811  64.5260 295.9201 14.17411710513148
Epoch: 2025-12-12T20:04Z
TLE epoch observation values (Epoch: 2025-12-12T20:04:02.911Z)
Latitude
0.00003°
Longitude
-24.29459°
Altitude
827.06 km
Speed
7.445 km/s
True Right ascension
23h 53m 57s
True Declination
0° 00' 00"
Sunlit
Object was in daylight at epoch
Visualization orbit readout
Latitude
Unknown
Longitude
Unknown
Altitude
Unknown
Speed
Unknown
Apparent Right ascension
Unknown
Apparent Declination
Unknown
Sunlit
N/A
Visualization observer readout
Local Sidereal Time
21:48:44
Azimuth
Unknown
Elevation
Unknown
Doppler factor
Unknown
Orbital elements
Apogee altitude
854.213 km
Perigee altitude
808.346 km
Semi-major axis
7,209.417 km
Eccentricity
0.00318
Inclination
98.6685°
RAAN
358.4896°
Arg. of periapsis
64.526°
True anomaly
295.59167°
Mean anomaly
295.9201°
Eccentric anomaly
295.75594°
Mean motion
3.54563 °/min
Orbital period
101.53 mins
BSTAR
0.0025125
Loading maneuver chart data...
Computing Atmospheric mass density...
Loading historical data...
Loading historical data...
Loading historical data...
Loading historical data...
Loading historical data...
Loading historical data...
Loading historical data...

Documentation

Showing up to 5 results
|